{"data":{"norad_id":48364,"intl_designator":"2021-038M","name":"STARLINK-2611","alt_names":[],"object_type":"PAYLOAD","status":"ACTIVE","operator":null,"country":"US","launch_date":"2021-05-04","launch_site_code":"AFETR","launch_vehicle":null,"mission":null,"orbit_class":"UNKNOWN","rcs_meters":null,"size_class":null,"mass_kg":null,"dimensions":null,"purposes":["comms"],"wikipedia_slug":null,"has_3d_model":false,"image_url":null,"decayed_at":null,"tle_current":{"epoch":"2026-05-25T00:27:51.831360Z","epoch_age_seconds":69581,"freshness":"FRESH","line1":"1 48364U 21038M   26145.01934990  .00000720  00000+0  34964-4 0  9990","line2":"2 48364  53.1600 352.7895 0001225  86.5435 273.5706 15.31705350278920","mean_motion":15.3170535,"eccentricity":0.0001225,"inclination_deg":53.16,"raan_deg":352.7895,"arg_perigee_deg":86.5435,"mean_anomaly_deg":273.5706,"bstar":3.4964e-5,"rev_number":27892,"period_min":94.012859588171,"perigee_km":469.88506172218,"apogee_km":471.56303267874,"semimajor_km":6848.8610472005,"source":"CELESTRAK","updated_at":"2026-05-25T13:38:16.686520Z"}}}